[[{"header":{"parameterUnit":"m.s-1","parameterCategory":1,"la1":30.2991,"la2":30.254,"lo1":-89.0895,"lo2":-89.0444,"dy":0.0017,"dx":0.0017,"nx":28,"ny":28,"refTime":"2025-06-15T09:00:00:Z","depth":0,"parameterNumber":2,"parameterNumberName":"U-component_of_WINDS"},"data":[0,0,0,0,0,0,0,0,0,0,0,0,0,0,0,0,0,0,0,0,0,0,0,0,0,0,0,0,0,0,0,0,0,0,0,0,0,0,0,0,0,0,0,0,0,0,0,0,0,0,0,0,0,0,0,0,0,0,0.8376,0.8378,0,0.8487,0.8488,0.8489,0.8559,0.8559,0.856,0.856,0.8676,0.8679,0.8681,0,0,0,0,0,0,0,0,0,0,0,0,0,0.8229,0.8231,0.8376,0.8378,0.8379,0.8486,0.8488,0.849,0.8559,0.8559,0.856,0.856,0.8675,0.8678,0.8682,0,0,0,0,0,0,0,0,0,0,0,0,0,0.8311,0.8232,0.8376,0.8427,0.8432,0.8486,0.8488,0.849,0.8559,0.8559,0.856,0.856,0.8674,0.8678,0.8682,0.8695,0,0,0.8694,0.8696,0,0,0,0,0,0,0,0,0.8307,0.8317,0.8418,0.8423,0.843,0.851,0.8479,0.8559,0.8558,0.8511,0.856,0.8561,0.862,0.8629,0.8648,0.8701,0.8706,0.8695,0.8697,0.8699,0.87,0,0,0,0,0,0,0,0.8301,0.8313,0.842,0.8419,0.8426,0.8445,0.8457,0.8494,0.8561,0.8515,0.852,0.8532,0.8624,0.8644,0.8652,0.8708,0.8695,0.8698,0.8701,0.8702,0.8778,0.8777,0,0,0,0,0,0,0.8287,0.8307,0.8417,0.8423,0.8368,0.8447,0.8461,0.8483,0.8561,0.8573,0.8532,0.8535,0.8637,0.8647,0.8656,0.8677,0.8699,0.8703,0.8705,0.8778,0.8778,0.8777,0,0,0,0,0,0,0.8283,0.8296,0.8412,0.8367,0.8383,0.8449,0.8474,0.8485,0.8506,0.8573,0.8586,0.854,0.8638,0.865,0.8685,0.8682,0.8705,0.8708,0.8779,0.8778,0.8777,0.872,0,0,0,0,0,0,0.8279,0.8294,0.8299,0.8366,0.8385,0.8438,0.8473,0.8487,0.8512,0.8518,0.8585,0.8596,0.8639,0.8679,0.8689,0.8688,0.8712,0.8779,0.8778,0.8778,0.8722,0.8717,0.8713,0,0,0,0,0,0.8273,0.8279,0.8299,0.8312,0.8393,0.8438,0.8449,0.8497,0.8512,0.8518,0.8561,0.8594,0.8681,0.8682,0.8694,0.8694,0.878,0.8779,0.8778,0.8724,0.8718,0.8713,0,0,0,0,0,0,0.8211,0.8289,0.8312,0.8339,0.8381,0.845,0.8459,0.8489,0.8529,0.8532,0.8592,0.8606,0.8635,0.8669,0.8668,0.8712,0.8734,0.8735,0.8689,0.8684,0.8679,0.8671,0.8715,0,0,0,0,0,0.82,0.8229,0.8296,0.8314,0.8334,0.8392,0.8414,0.8448,0.8494,0.8513,0.8559,0.8603,0.8641,0.8664,0.8702,0.8727,0.8743,0.8734,0.8729,0.8725,0.8725,0.8742,0.8738,0.8774,0.8774,0.8774,0,0,0.8179,0.8225,0.824,0.8303,0.8339,0.8369,0.8407,0.8437,0.8461,0.8518,0.8553,0.8588,0.8642,0.8672,0.8688,0.8701,0.8719,0.8723,0.872,0.8723,0.874,0.8737,0.8734,0.8773,0.8773,0.8773,0,0,0.8155,0.8192,0.8212,0.8247,0.8302,0.8341,0.8345,0.8409,0.8434,0.847,0.8514,0.8543,0.8606,0.8643,0.8669,0.8659,0.8691,0.867,0.8646,0.8661,0.8658,0.8656,0.8653,0.8651,0.8671,0.8671,0.867,0,0.8122,0.8167,0.8218,0.8245,0.8272,0.8324,0.8345,0.8377,0.8442,0.8459,0.8473,0.8553,0.8593,0.8632,0.863,0.865,0.8657,0.8663,0.8655,0.8653,0.8652,0.8649,0.8648,0.8668,0.8668,0.8668,0.8669,0,0.8124,0.8155,0.8165,0.8224,0.8252,0.8276,0.8331,0.8353,0.8384,0.8422,0.8459,0.8509,0.8558,0.857,0.8601,0.8614,0.862,0.8643,0.8667,0.8644,0.8643,0.8643,0.8664,0.8665,0.8665,0.8666,0,0,0.8064,0.8151,0.8154,0.8182,0.8246,0.8272,0.8298,0.8345,0.8364,0.8406,0.8431,0.8483,0.8504,0.8535,0.8571,0.8584,0.8573,0.8606,0.8608,0.8598,0.8591,0.8574,0.8572,0.8595,0.8595,0.8595,0.8587,0,0.805,0.81,0.8146,0.8179,0.8209,0.8259,0.8282,0.8324,0.836,0.8392,0.8432,0.8468,0.8494,0.8512,0.8528,0.8571,0.8573,0.8572,0.8619,0.862,0.8604,0.8571,0.8553,0.8543,0.8587,0.8587,0.8587,0,0.8041,0.808,0.8116,0.8177,0.8191,0.8211,0.8258,0.8288,0.8337,0.8362,0.8396,0.8433,0.8465,0.8484,0.8529,0.8528,0.855,0.8574,0.8575,0.8582,0.8602,0.8577,0.8541,0.854,0.8587,0.8587,0.8587,0,0.7994,0.8056,0.8086,0.8108,0.818,0.8193,0.8224,0.8274,0.8299,0.8341,0.8358,0.8403,0.8428,0.8462,0.8511,0.8521,0.8551,0.8574,0.8573,0.8572,0.8578,0.8577,0.8545,0.8591,0.8591,0.8591,0.8591,0,0.7974,0.7994,0.8066,0.8084,0.8108,0.8161,0.8184,0.8219,0.8263,0.829,0.8336,0.836,0.8423,0.8456,0.8494,0.8526,0.8537,0.8559,0.8569,0.8555,0.8552,0.857,0.8572,0.8591,0.8591,0.8591,0.8591,0,0.7926,0.7974,0.801,0.8075,0.8092,0.8107,0.8163,0.8183,0.8222,0.8255,0.8266,0.8327,0.8367,0.8419,0.8476,0.8502,0.8529,0.8544,0.8512,0.8518,0.8514,0.8514,0.8493,0.8493,0.8538,0.8538,0.8537,0,0.7909,0.7926,0.7993,0.8013,0.8042,0.8075,0.8101,0.8155,0.818,0.8237,0.8251,0.8294,0.8332,0.8394,0.8444,0.8488,0.8505,0.8494,0.8512,0.8497,0.8505,0.8504,0.8506,0.849,0.8489,0.8489,0.8488,0,0.7876,0.7899,0.7935,0.7978,0.8008,0.8045,0.8084,0.8099,0.8161,0.8187,0.8228,0.8257,0.8315,0.8358,0.8408,0.8441,0.8475,0.8482,0.8485,0.847,0.8451,0.8462,0.85,0.8483,0.8483,0.8484,0.8484,0.8484,0.7844,0.7861,0.791,0.7948,0.7983,0.8019,0.8041,0.8082,0.8117,0.8167,0.8197,0.8237,0.8287,0.8358,0.8389,0.8422,0.8435,0.8438,0.8439,0.8439,0.8435,0.8445,0.8432,0.8432,0.8432,0.8432,0.8432,0,0.7813,0.7847,0.7882,0.7935,0.7965,0.7993,0.8038,0.8062,0.8096,0.8139,0.8175,0.8222,0.8264,0.8317,0.8363,0.8379,0.8396,0.8389,0.8389,0.8396,0.842,0.8414,0.8375,0.8375,0.8375,0.8375,0.8375,0.8375,0.7801,0.7831,0.786,0.7909,0.7944,0.7982,0.8006,0.8039,0.8074,0.8124,0.8159,0.8193,0.824,0.829,0.833,0.8344,0.8359,0.8348,0.8367,0.8389,0.8394,0.8399,0.8393,0.835,0.835,0.834,0.834,0.834]},{"header":{"parameterUnit":"m.s-1","parameterCategory":1,"la1":30.2991,"la2":30.254,"lo1":-89.0895,"lo2":-89.0444,"dy":0.0017,"dx":0.0017,"nx":28,"ny":28,"refTime":"2025-06-15T09:00:00:Z","depth":0,"parameterNumber":3,"parameterNumberName":"V-component_of_WINDS"},"data":[0,0,0,0,0,0,0,0,0,0,0,0,0,0,0,0,0,0,0,0,0,0,0,0,0,0,0,0,0,0,0,0,0,0,0,0,0,0,0,0,0,0,0,0,0,0,0,0,0,0,0,0,0,0,0,0,0,0,2.0379,2.0379,0,2.0325,2.0325,2.0324,2.0318,2.0318,2.0319,2.0319,2.0261,2.0259,2.0257,0,0,0,0,0,0,0,0,0,0,0,0,0,2.0474,2.0472,2.038,2.0379,2.0378,2.0325,2.0325,2.0324,2.0318,2.0318,2.0319,2.032,2.0261,2.0259,2.0256,0,0,0,0,0,0,0,0,0,0,0,0,0,2.0428,2.0472,2.038,2.0369,2.0367,2.0326,2.0325,2.0324,2.0318,2.0318,2.0319,2.032,2.0262,2.0259,2.0256,2.0221,0,0,2.0247,2.0245,0,0,0,0,0,0,0,0,2.043,2.0424,2.0371,2.0369,2.0368,2.0329,2.0336,2.0289,2.0317,2.0336,2.0319,2.032,2.0283,2.0278,2.0266,2.0218,2.0215,2.0246,2.0244,2.0243,2.0242,0,0,0,0,0,0,0,2.0433,2.0426,2.0358,2.037,2.0368,2.0365,2.036,2.0327,2.0305,2.0335,2.0334,2.0328,2.0282,2.0269,2.0264,2.0214,2.0246,2.0244,2.0242,2.0241,2.0133,2.0132,0,0,0,0,0,0,2.0439,2.0429,2.036,2.0356,2.0402,2.0363,2.0357,2.0341,2.0306,2.0301,2.0327,2.0328,2.0274,2.0268,2.0262,2.0217,2.0243,2.024,2.0238,2.0134,2.0133,2.0132,0,0,0,0,0,0,2.0441,2.0433,2.0362,2.0393,2.0383,2.0361,2.0343,2.0339,2.0326,2.03,2.0296,2.0318,2.0274,2.0267,2.0231,2.0215,2.0239,2.0236,2.0135,2.0134,2.0133,2.0128,0,0,0,0,0,0,2.0444,2.0434,2.0421,2.0392,2.0382,2.0332,2.0342,2.0338,2.0321,2.0321,2.0291,2.0286,2.0274,2.0236,2.0228,2.0211,2.0234,2.0137,2.0135,2.0133,2.0129,2.0127,2.0124,0,0,0,0,0,2.0447,2.0421,2.042,2.0412,2.0365,2.0332,2.0325,2.0313,2.032,2.0306,2.0289,2.0287,2.0219,2.0232,2.0223,2.0206,2.0138,2.0135,2.0133,2.0131,2.0127,2.0124,0,0,0,0,0,0,2.0447,2.0417,2.0416,2.038,2.0359,2.0331,2.0313,2.031,2.0285,2.0286,2.0271,2.0264,2.0228,2.0214,2.0229,2.0169,2.0179,2.0175,2.018,2.0176,2.0174,2.0177,2.0231,0,0,0,0,0,2.0444,2.042,2.0394,2.0365,2.0355,2.0336,2.032,2.0313,2.0289,2.028,2.0261,2.0237,2.021,2.0192,2.0166,2.0128,2.012,2.0111,2.0109,2.0106,2.0103,2.008,2.0075,2.0125,2.0125,2.0125,0,0,2.0435,2.0415,2.0401,2.0365,2.0347,2.0322,2.0328,2.0301,2.0281,2.0275,2.024,2.0226,2.0198,2.0161,2.0143,2.0147,2.0088,2.0104,2.0102,2.0099,2.0077,2.0072,2.0068,2.0123,2.0123,2.0124,0,0,2.0405,2.0389,2.0363,2.0345,2.0319,2.0306,2.03,2.0272,2.0262,2.0227,2.0222,2.0198,2.0152,2.0133,2.0117,2.008,2.0076,2.0072,2.0057,2.0035,2.0031,2.0028,2.0013,2.0009,2.0068,2.0068,2.0068,0,2.0397,2.036,2.0349,2.0322,2.0305,2.03,2.0272,2.0255,2.0221,2.021,2.0215,2.0157,2.0138,2.0095,2.0087,2.0074,2.0065,2.0075,2.0033,2.0029,2.0026,2.0012,2.0007,2.0068,2.0068,2.0068,2.0068,0,2.0351,2.0325,2.0306,2.0274,2.0256,2.0229,2.0212,2.0195,2.0189,2.0175,2.0139,2.0117,2.0085,2.0075,2.0068,2.0031,2.0034,2.0037,2.0046,2.0021,2.0007,2.0002,2.0067,2.0067,2.0068,2.0068,0,0,2.0319,2.0282,2.0275,2.026,2.0231,2.021,2.0182,2.0152,2.0137,2.0114,2.0089,2.005,2.0052,2.0034,2.0026,2.0006,1.9977,2.0011,2.001,2.0004,1.9932,1.993,1.9924,1.9975,1.9974,1.9973,1.9934,0,2.0285,2.0236,2.0226,2.0183,2.0158,2.0153,2.0128,2.0106,2.0093,2.0069,2.0054,2.0027,2.0032,2.0021,2.0002,1.9985,1.9962,1.9988,1.995,1.9949,1.9956,1.9917,1.9914,1.9878,1.9929,1.9928,1.9928,0,2.0239,2.0216,2.0171,2.0144,2.0133,2.0112,2.0083,2.0061,2.0036,2.0027,2.0007,2.0001,1.997,1.9982,1.9938,1.9956,1.994,1.9929,1.9928,1.9922,1.9936,1.9909,1.9867,1.9861,1.9919,1.992,1.9921,0,2.0219,2.0176,2.0144,2.0131,2.01,2.0084,2.007,2.0046,2.0029,2.0004,1.9992,1.9964,1.9947,1.9925,1.991,1.992,1.9867,1.9878,1.9858,1.9859,1.9846,1.9847,1.9799,1.9838,1.9839,1.9839,1.9839,0,2.0182,2.0154,2.0134,2.0114,2.0082,2.007,2.0038,2.0024,2.0003,1.9979,1.9973,1.995,1.9932,1.9907,1.9895,1.986,1.9853,1.9845,1.9841,1.9844,1.9845,1.9833,1.9834,1.9837,1.9838,1.9838,1.9838,0,2.0153,2.0139,2.0103,2.0076,2.0069,2.0047,2.0023,2.0002,1.9989,1.9959,1.9951,1.993,1.9899,1.9883,1.9845,1.9837,1.9797,1.9796,1.9806,1.9804,1.9784,1.9786,1.9726,1.9717,1.9763,1.9763,1.9763,0,2.013,2.0109,2.008,2.0064,2.005,2.0024,2.0006,1.9993,1.9975,1.9945,1.9927,1.9897,1.9872,1.9823,1.9804,1.9774,1.9771,1.9752,1.9767,1.977,1.9769,1.977,1.9767,1.9749,1.9749,1.9748,1.9748,0,2.0089,2.0083,2.0059,2.0032,2.0011,1.9989,1.9967,1.9954,1.9936,1.9916,1.9885,1.9866,1.9827,1.9796,1.9765,1.9749,1.9745,1.9744,1.9737,1.9739,1.9745,1.974,1.9797,1.9745,1.9745,1.9746,1.9746,1.9746,2.0062,2.0042,2.0019,1.9991,1.9974,1.9953,1.9932,1.9917,1.9891,1.9859,1.9853,1.982,1.9795,1.9753,1.9736,1.9709,1.9713,1.9704,1.9701,1.9699,1.9697,1.9751,1.9704,1.9704,1.9704,1.9704,1.9704,0,2.0019,2.0004,1.9979,1.9949,1.9927,1.9927,1.9902,1.9883,1.9855,1.9833,1.9808,1.9772,1.9742,1.9721,1.969,1.9673,1.967,1.9665,1.9665,1.9661,1.9697,1.9705,1.9668,1.9668,1.9668,1.9668,1.9668,1.9668,1.9995,1.9961,1.9952,1.991,1.9894,1.9863,1.9849,1.9829,1.9811,1.9772,1.9747,1.9734,1.9711,1.9679,1.9651,1.9645,1.9633,1.9628,1.9622,1.9655,1.9659,1.9663,1.967,1.9626,1.9626,1.9589,1.9588,1.9588]}]]